GW1497 Weather Reports


time (UTC)temp
F
wind
direction
speed
knots
gust
knots
rain 1hr
in
rain 24hr
in
rain mn
in
humidity
%
barometer
mb
20260507033343 51 313 3.5 3.5 0.00 0.00 0.86 97 1015.5
20260507032121 52 306 5.2 7.8 0.00 0.00 0.86 99 1015.2
20260507030950 52 318 1.7 1.7 0.00 0.00 0.86 99 1015.2
20260507030351 53 317 1.7 1.7 0.00 0.00 0.86 99 1015.5
20260507025726 53 287 0.9 2.6 0.00 0.00 0.86 99 1015.5
20260507024540 53 315 0.0 1.7 0.00 0.00 0.86 99 1015.5
20260507023911 53 123 1.7 1.7 0.00 0.00 0.86 99 1015.5
20260507023354 53 4 0.0 0.0 0.00 0.00 0.86 99 1015.5
20260507022710 53 26 0.9 1.7 0.00 0.00 0.86 99 1015.2
20260507022117 53 51 0.9 0.9 0.00 0.00 0.86 98 1015.2
20260507021541 53 115 0.9 1.7 0.00 0.00 0.86 98 1014.9
20260507020939 52 14 0.0 1.7 0.00 0.00 0.86 98 1014.9
20260507020318 53 15 1.7 2.6 0.00 0.00 0.86 98 1014.5
20260507015728 53 13 0.9 1.7 0.00 0.00 0.86 97 1014.9
20260507015145 53 58 0.0 1.7 0.00 0.00 0.86 96 1014.9
20260507014513 53 124 0.0 0.9 0.00 0.00 0.86 97 1014.9
20260507013930 53 114 1.7 1.7 0.00 0.00 0.86 97 1014.9
20260507013354 53 132 0.9 1.7 0.00 0.00 0.86 97 1014.9
20260507012144 53 35 0.0 0.0 0.00 0.00 0.86 96 1014.5
20260507011532 53 353 0.9 1.7 0.00 0.00 0.86 96 1014.2
20260507010953 53 95 0.0 1.7 0.00 0.00 0.86 95 1014.2
20260507010329 53 49 0.9 1.7 0.00 0.00 0.86 95 1014.2
20260507005135 53 211 0.0 0.0 0.00 0.00 0.86 93 1014.9
20260507004543 54 83 0.0 0.9 0.00 0.00 0.86 93 1014.5
20260507003344 53 115 1.7 1.7 0.00 0.00 0.86 93 1014.2
20260507002728 53 50 0.9 1.7 0.00 0.00 0.86 93 1013.8
20260507001548 54 14 0.0 0.9 0.00 0.00 0.86 93 1014.2
20260507000314 54 54 0.0 0.9 0.00 0.00 0.86 94 1013.8
20260506235728 54 90 0.9 0.9 0.00 0.00 0.86 92 1013.8
20260506235133 54 52 0.9 1.7 0.00 0.00 0.86 91 1013.8
20260506234523 54 31 2.6 2.6 0.00 0.00 0.86 88 1013.8
20260506233939 54 37 1.7 1.7 0.00 0.00 0.86 87 1013.8
20260506233351 55 34 2.6 2.6 0.00 0.00 0.86 87 1014.2
20260506232743 55 37 0.0 0.9 0.00 0.00 0.86 87 1014.5
20260506232149 55 7 0.9 1.7 0.00 0.00 0.86 87 1014.2
20260506231525 55 33 1.7 2.6 0.00 0.00 0.86 86 1014.2
20260506230932 55 25 0.9 1.7 0.00 0.00 0.86 87 1014.2
20260506230329 55 22 0.9 1.7 0.00 0.00 0.86 87 1014.2
20260506225711 55 12 0.9 0.9 0.00 0.00 0.86 87 1014.2
20260506225110 55 35 0.0 0.9 0.00 0.00 0.86 88 1014.2
20260506224517 56 34 0.0 1.7 0.00 0.00 0.86 90 1013.8
20260506223932 55 22 2.6 2.6 0.00 0.00 0.86 87 1014.2
20260506223327 55 6 0.9 1.7 0.00 0.00 0.86 88 1014.5
20260506222722 55 326 0.0 0.9 0.00 0.00 0.86 87 1014.2
20260506222144 55 342 0.0 1.7 0.00 0.00 0.86 88 1013.8
20260506221515 55 350 0.9 1.7 0.00 0.00 0.86 89 1013.8
20260506220917 55 337 0.9 1.7 0.00 0.00 0.86 88 1013.8
20260506220343 55 291 1.7 1.7 0.00 0.00 0.86 87 1013.5
20260506215738 55 310 1.7 1.7 0.00 0.00 0.86 88 1013.5
20260506215141 55 321 0.9 2.6 0.00 0.00 0.86 87 1013.8
20260506214549 55 321 0.9 1.7 0.00 0.00 0.86 87 1013.5
20260506213317 56 329 0.9 1.7 0.00 0.00 0.86 86 1013.8
20260506212713 57 19 0.0 0.0 0.00 0.00 0.86 85 1013.5
20260506212127 57 341 0.0 1.7 0.00 0.00 0.86 84 1013.5
20260506210929 57 351 1.7 1.7 0.00 0.00 0.86 84 1013.5
20260506210347 56 291 0.0 1.7 0.00 0.00 0.86 85 1013.5
20260506204531 56 347 0.9 1.7 0.00 0.00 0.86 85 1013.2
20260506203311 58 20 2.6 3.5 0.00 0.00 0.86 83 1013.2
20260506202713 56 106 0.9 3.5 0.00 0.00 0.86 84 1012.8
20260506201533 54 289 0.0 1.7 0.00 0.00 0.86 91 1013.2
20260506200314 55 356 0.9 1.7 0.00 0.00 0.86 90 1013.2
20260506195752 54 302 1.7 2.6 0.00 0.00 0.86 89 1013.2
20260506194536 55 247 2.6 2.6 0.00 0.00 0.86 88 1013.2
20260506193953 55 281 1.7 2.6 0.00 0.00 0.86 89 1013.2
20260506193353 54 306 1.7 3.5 0.00 0.00 0.86 90 1013.2
20260506192743 54 287 2.6 4.3 0.00 0.00 0.86 90 1012.8
20260506192132 55 309 3.5 3.5 0.00 0.00 0.86 90 1012.8
20260506191543 55 281 1.7 3.5 0.00 0.00 0.86 90 1013.2
20260506190913 54 305 3.5 5.2 0.00 0.00 0.86 92 1012.8
20260506190340 54 280 2.6 3.5 0.00 0.00 0.86 93 1013.2
20260506185719 54 267 1.7 3.5 0.00 0.00 0.86 91 1013.2
20260506184536 54 315 0.9 1.7 0.00 0.00 0.86 93 1012.8
20260506183920 54 316 0.0 3.5 0.00 0.00 0.86 95 1013.2
20260506183330 53 310 2.6 5.2 0.00 0.00 0.86 95 1013.2
20260506182740 53 263 2.6 5.2 0.00 0.00 0.86 95 1013.2
20260506181541 53 251 2.6 2.6 0.00 0.00 0.86 97 1012.8
20260506180936 52 312 2.6 2.6 0.00 0.00 0.86 98 1013.2
20260506180354 52 290 5.2 5.2 0.00 0.00 0.86 99 1012.8
20260506175748 52 293 3.5 3.5 0.00 0.00 0.86 99 1012.8
20260506175127 52 321 1.7 3.5 0.00 0.00 0.86 99 1013.2
20260506174531 52 296 2.6 5.2 0.00 0.00 0.86 99 1012.8
20260506173943 52 270 2.6 4.3 0.00 0.00 0.86 99 1013.2
20260506173318 52 280 3.5 5.2 0.00 0.00 0.86 99 1013.2
20260506172712 52 283 2.6 5.2 0.00 0.00 0.86 99 1012.8
20260506172141 52 278 3.5 3.5 0.00 0.00 0.86 99 1012.8
20260506170953 52 309 1.7 4.3 0.00 0.00 0.86 99 1012.8
20260506170310 52 304 2.6 5.2 0.00 0.00 0.86 99 1012.8
20260506163946 53 268 3.5 6.1 0.00 0.00 0.86 99 1012.5
20260506163334 53 303 2.6 4.3 0.00 0.00 0.86 99 1012.8
20260506162749 53 272 1.7 4.3 0.00 0.00 0.86 99 1012.8
20260506162115 54 316 1.7 2.6 0.00 0.00 0.86 99 1012.5
20260506161546 54 282 1.7 1.7 0.00 0.00 0.86 99 1012.5
20260506160934 54 297 0.0 1.7 0.00 0.00 0.86 99 1012.1
20260506160351 53 326 0.0 1.7 0.00 0.00 0.86 99 1012.1
20260506155711 53 304 0.9 1.7 0.00 0.00 0.86 99 1012.1
20260506155128 53 319 0.0 1.7 0.00 0.00 0.85 99 1012.1
20260506154542 52 303 0.0 1.7 0.00 0.00 0.85 99 1012.1
20260506153930 52 255 1.7 1.7 0.00 0.00 0.85 99 1012.1
20260506153334 52 290 3.5 3.5 0.00 0.00 0.85 99 1011.8
20260506152733 52 281 2.6 4.3 0.00 0.00 0.85 99 1011.8
20260506151533 54 339 1.7 3.5 0.00 0.00 0.85 99 1011.8
20260506150933 54 292 2.6 4.3 0.00 0.00 0.85 99 1011.5
20260506150311 54 299 4.3 8.7 0.00 0.00 0.85 99 1011.5
20260506145750 55 267 2.6 6.1 0.00 0.00 0.85 99 1011.1
20260506145133 55 293 5.2 7.0 0.00 0.00 0.85 99 1011.1
20260506144538 56 262 6.1 8.7 0.00 0.00 0.85 99 1011.1
20260506143929 58 294 7.0 7.8 0.00 0.00 0.84 99 1010.8
20260506143317 58 254 2.6 6.1 0.00 0.00 0.83 99 1010.8
20260506142716 58 210 3.5 10.4 0.00 0.00 0.82 99 1010.4
20260506142117 58 169 0.0 3.5 0.00 0.00 0.82 99 1010.4
20260506141523 58 169 5.2 6.1 0.00 0.00 0.82 99 1010.1
20260506140935 58 212 3.5 7.8 0.00 0.00 0.82 99 1010.1
20260506140343 58 183 7.0 7.8 0.00 0.00 0.82 99 1010.1
20260506135734 58 285 1.7 5.2 0.00 0.00 0.82 99 1009.8
20260506135139 58 166 5.2 12.2 0.00 0.00 0.82 99 1009.4
20260506134512 58 172 3.5 8.7 0.00 0.00 0.82 99 1009.4
20260506133920 58 170 3.5 8.7 0.00 0.00 0.82 99 1009.4
20260506133350 58 145 5.2 8.7 0.00 0.00 0.82 99 1009.4
20260506132744 58 207 5.2 7.8 0.00 0.00 0.82 99 1009.8
20260506132120 58 198 5.2 5.2 0.00 0.00 0.82 99 1009.4
20260506131514 57 179 3.5 5.2 0.00 0.00 0.82 99 1009.8
20260506130920 57 235 1.7 7.0 0.00 0.00 0.82 99 1009.8
20260506125727 57 182 6.1 7.8 0.00 0.00 0.82 99 1009.8
20260506125146 57 181 1.7 7.0 0.00 0.00 0.82 99 1009.8
20260506124511 57 209 2.6 5.2 0.00 0.00 0.82 99 1009.8
20260506123932 57 138 2.6 2.6 0.00 0.00 0.82 99 1009.4
20260506123320 57 153 1.7 4.3 0.00 0.00 0.82 99 1009.4
20260506122715 57 177 2.6 4.3 0.00 0.00 0.82 99 1009.4
20260506122149 57 161 5.2 5.2 0.00 0.00 0.82 99 1009.4
20260506121518 57 160 2.6 7.8 0.00 0.00 0.82 99 1009.4
20260506120310 57 135 3.5 5.2 0.00 0.00 0.81 99 1009.8
20260506115715 56 137 4.3 7.0 0.00 0.00 0.81 99 1009.4
20260506115122 56 142 1.7 2.6 0.00 0.00 0.81 99 1009.4
20260506114533 56 144 4.3 4.3 0.00 0.00 0.81 99 1009.4
20260506113948 56 113 1.7 2.6 0.00 0.00 0.81 99 1009.4
20260506112733 56 43 1.7 2.6 0.00 0.00 0.79 99 1009.4
20260506111515 56 157 1.7 3.5 0.00 0.00 0.78 99 1009.4
20260506110913 56 103 3.5 5.2 0.00 0.00 0.78 99 1009.4
20260506105711 56 166 1.7 4.3 0.00 0.00 0.75 99 1009.4
20260506105146 56 98 2.6 7.8 0.00 0.00 0.74 99 1009.1
20260506103921 56 181 2.6 6.1 0.00 0.00 0.72 99 1009.4
20260506103351 56 142 2.6 4.3 0.00 0.00 0.72 99 1009.1
20260506102708 56 44 0.0 2.6 0.00 0.00 0.70 99 1009.4
20260506102109 56 273 2.6 2.6 0.00 0.00 0.69 99 1009.1
20260506100950 56 263 0.9 1.7 0.00 0.00 0.67 99 1009.4
20260506095711 56 299 1.7 1.7 0.00 0.00 0.64 99 1009.4
20260506095149 56 1 0.9 2.6 0.00 0.00 0.62 99 1009.1
20260506094538 56 314 0.0 2.6 0.00 0.00 0.60 99 1009.1
20260506093321 56 139 0.9 2.6 0.00 0.00 0.55 99 1009.4
20260506092747 56 139 0.9 1.7 0.00 0.00 0.53 99 1009.4
20260506092113 56 170 4.3 4.3 0.00 0.00 0.51 99 1009.1
20260506090323 56 118 1.7 3.5 0.00 0.00 0.47 99 1009.1
20260506085736 56 195 3.5 5.2 0.00 0.00 0.45 99 1009.4
20260506085114 56 181 2.6 9.6 0.00 0.00 0.44 99 1009.4
20260506083926 57 243 0.0 3.5 0.00 0.00 0.33 98 1009.8
20260506083337 57 201 2.6 2.6 0.00 0.00 0.28 98 1009.8
20260506082737 57 131 3.5 3.5 0.00 0.00 0.26 97 1010.1
20260506082142 57 189 4.3 5.2 0.00 0.00 0.21 97 1009.8
20260506081514 57 255 1.7 1.7 0.00 0.00 0.16 96 1010.1
20260506080930 57 272 1.7 2.6 0.00 0.00 0.11 96 1010.1
20260506080318 57 206 1.7 3.5 0.00 0.00 0.09 94 1009.8
20260506073309 58 182 2.6 7.8 0.00 0.00 0.05 89 1009.4
20260506072709 59 185 4.3 11.3 0.00 0.00 0.05 87 1009.4
20260506072143 59 184 3.5 5.2 0.00 0.00 0.04 87 1009.4
20260506071550 60 182 5.2 5.2 0.00 0.00 0.02 82 1009.4
20260506070907 60 165 7.0 9.6 0.00 0.00 0.01 80 1009.4
20260506070330 60 124 3.5 7.8 0.00 0.00 0.01 79 1009.4
20260506062127 62 264 0.0 1.7 0.00 0.00 0.00 74 1009.4
20260506061510 62 142 1.7 2.6 0.00 0.00 0.00 71 1009.4
20260506060342 62 173 3.5 5.2 0.00 0.00 0.00 72 1009.8
20260506050949 63 129 2.6 3.5 0.00 0.00 0.00 64 1010.4
20260506050336 64 19 1.7 3.5 0.00 0.00 0.00 63 1010.4
20260506044516 64 183 0.9 3.5 0.00 0.00 0.00 61 1010.4
20260506043920 64 115 0.9 2.6 0.00 0.00 0.00 61 1010.4
20260506042725 64 159 1.7 1.7 0.00 0.00 0.00 62 1010.8
20260506042128 63 62 1.7 2.6 0.00 0.00 0.00 64 1010.4
20260506041543 64 181 0.0 1.7 0.00 0.00 0.00 62 1010.4
20260506040349 63 228 0.0 2.6 0.00 0.00 0.00 63 1010.8
20260506035712 62 138 1.7 3.5 0.00 0.00 0.00 66 1010.8
20260506035141 62 48 0.9 3.5 0.00 0.00 0.00 68 1011.1
20260506033948 63 157 1.7 1.7 0.00 0.00 0.00 63 1010.8